Overview Statistics Trail Chart Weather Telemetry Raw packets
 

This is the latest recevied weather packets stored in our database for station/object OK1VOF-13. If no packets are shown the sender has not sent any weather packets the latest 10 day(s).

<< 12 13 14 15 16 17 18 >>
Time Temp. Humidity Pressure Rain* Wind** Luminosity Snow
1788450289 23.33° C 53% 1020.7 hPa 0 mm - - -
1788449399 23.89° C 52% 1021 hPa 0 mm - - -
1788449101 23.89° C 52% 1021 hPa 0 mm - - -
1788448496 24.44° C 53% 1020.9 hPa 0 mm - - -
1788448198 25° C 53% 1020.9 hPa 0 mm - - -
1788447899 25° C 53% 1020.7 hPa 0 mm - - -
1788447607 25° C 53% 1020.8 hPa 0 mm - - -
1788447308 25° C 53% 1020.9 hPa 0 mm - - -
1788446710 25° C 54% 1020.9 hPa 0 mm - - -
1788446412 25° C 55% 1021.1 hPa 0 mm - - -
1788446106 25° C 55% 1021 hPa 0 mm - - -
1788445807 25° C 56% 1021.1 hPa 0 mm - - -
1788445509 25° C 56% 1021.1 hPa 0 mm - - -
1788444918 24.44° C 57% 1021 hPa 0 mm - - -
1788444619 23.89° C 57% 1021.1 hPa 0 mm - - -
1788444021 23.33° C 57% 1021.1 hPa 0 mm - - -
1788443722 23.33° C 57% 1021.1 hPa 0 mm - - -
1788443424 23.33° C 57% 1021 hPa 0 mm - - -
1788442819 23.33° C 57% 1021.1 hPa 0 mm - - -
1788442521 22.78° C 58% 1021.2 hPa 0 mm - - -
1788441917 22.78° C 58% 1021.2 hPa 139.19 mm - - -
1788441319 22.22° C 58% 1021.2 hPa 139.19 mm - - -
1788441017 22.22° C 58% 1021.2 hPa 139.19 mm - - -
1788440407 22.22° C 58% 1021.3 hPa 139.19 mm - - -
1788440105 22.22° C 58% 1021.3 hPa 139.19 mm - - -

* Rain latest hour (hover to see other rain measurements)
** Current wind speed in m/s (hover to see current wind gust speed)